Time,TemperatureF,DewpointF,PressureIn,WindDirection,WindDirectionDegrees,WindSpeedMPH,WindSpeedGustMPH,Humidity,HourlyPrecipIn,Conditions,Clouds,dailyrainin,SolarRadiationWatts/m^2,SoftwareType,DateUTC
2013-07-14 00:11:00,51.0,34.0,-100.00,NE,34,17.0,27.0,52,0.00,,,0.01,0.000000,,2013-07-14 06:11:00,
2013-07-14 00:22:00,51.0,34.0,-100.00,NE,34,17.0,27.0,52,0.00,,,0.01,0.000000,,2013-07-14 06:22:00,
2013-07-14 00:32:00,51.0,34.0,-100.00,NE,34,17.0,27.0,52,0.00,,,0.01,0.000000,,2013-07-14 06:32:00,
2013-07-14 00:42:00,51.0,34.0,-100.00,NE,34,17.0,27.0,52,0.00,,,0.01,0.000000,,2013-07-14 06:42:00,
2013-07-14 00:52:00,48.0,41.0,-100.00,East,84,12.0,25.0,76,0.00,,,0.00,0.000000,,2013-07-14 06:52:00,
2013-07-14 01:12:00,48.0,41.0,-100.00,East,84,12.0,25.0,76,0.00,,,0.00,0.000000,,2013-07-14 07:12:00,
2013-07-14 01:22:00,48.0,41.0,-100.00,East,84,12.0,25.0,76,0.00,,,0.00,0.000000,,2013-07-14 07:22:00,
2013-07-14 01:33:00,48.0,41.0,-100.00,East,84,12.0,25.0,76,0.00,,,0.00,0.000000,,2013-07-14 07:33:00,
2013-07-14 01:43:00,48.0,41.0,-100.00,East,84,12.0,25.0,76,0.00,,,0.00,0.000000,,2013-07-14 07:43:00,
2013-07-14 01:52:00,46.0,42.0,-100.00,ESE,105,16.0,23.0,87,0.00,,,0.00,0.000000,,2013-07-14 07:52:00,
2013-07-14 02:22:00,46.0,42.0,-100.00,ESE,105,16.0,23.0,87,0.00,,,0.00,0.000000,,2013-07-14 08:22:00,
2013-07-14 02:32:00,46.0,42.0,-100.00,ESE,105,16.0,23.0,87,0.00,,,0.00,0.000000,,2013-07-14 08:32:00,
2013-07-14 02:42:00,46.0,42.0,-100.00,ESE,105,16.0,23.0,87,0.00,,,0.00,0.000000,,2013-07-14 08:42:00,
2013-07-14 02:52:00,48.0,44.0,-100.00,ESE,111,13.0,21.0,86,0.00,,,0.00,0.000000,,2013-07-14 08:52:00,
2013-07-14 03:11:00,48.0,44.0,-100.00,ESE,111,13.0,21.0,86,0.00,,,0.00,0.000000,,2013-07-14 09:11:00,
2013-07-14 03:22:00,48.0,44.0,-100.00,ESE,111,13.0,21.0,86,0.00,,,0.00,0.000000,,2013-07-14 09:22:00,
2013-07-14 03:32:00,48.0,44.0,-100.00,ESE,111,13.0,21.0,86,0.00,,,0.00,0.000000,,2013-07-14 09:32:00,
2013-07-14 03:42:00,48.0,44.0,-100.00,ESE,111,13.0,21.0,86,0.00,,,0.00,0.000000,,2013-07-14 09:42:00,
2013-07-14 03:52:00,47.0,41.0,-100.00,SE,132,14.0,24.0,78,0.00,,,0.00,0.000000,,2013-07-14 09:52:00,
2013-07-14 04:11:00,47.0,41.0,-100.00,SE,132,14.0,24.0,78,0.00,,,0.00,0.000000,,2013-07-14 10:11:00,
2013-07-14 04:22:00,47.0,41.0,-100.00,SE,132,14.0,24.0,78,0.00,,,0.00,0.000000,,2013-07-14 10:22:00,
2013-07-14 04:32:00,47.0,41.0,-100.00,SE,132,14.0,24.0,78,0.00,,,0.00,0.000000,,2013-07-14 10:32:00,
2013-07-14 04:42:00,47.0,41.0,-100.00,SE,132,14.0,24.0,78,0.00,,,0.00,0.000000,,2013-07-14 10:42:00,
2013-07-14 04:52:00,49.0,41.0,-100.00,SE,136,14.0,23.0,73,0.00,,,0.00,0.000000,,2013-07-14 10:52:00,
2013-07-14 05:11:00,49.0,41.0,-100.00,SE,136,14.0,23.0,73,0.00,,,0.00,0.000000,,2013-07-14 11:11:00,
2013-07-14 05:22:00,49.0,41.0,-100.00,SE,136,14.0,23.0,73,0.00,,,0.00,0.000000,,2013-07-14 11:22:00,
2013-07-14 05:32:00,49.0,41.0,-100.00,SE,136,14.0,23.0,73,0.00,,,0.00,0.000000,,2013-07-14 11:32:00,
2013-07-14 05:43:00,49.0,41.0,-100.00,SE,136,14.0,23.0,73,0.00,,,0.00,0.000000,,2013-07-14 11:43:00,
2013-07-14 05:52:00,49.0,40.0,-100.00,SE,128,12.0,21.0,71,0.00,,,0.00,1.000000,,2013-07-14 11:52:00,
2013-07-14 06:11:00,49.0,40.0,-100.00,SE,128,12.0,21.0,71,0.00,,,0.00,1.000000,,2013-07-14 12:11:00,
2013-07-14 06:22:00,49.0,40.0,-100.00,SE,128,12.0,21.0,71,0.00,,,0.00,1.000000,,2013-07-14 12:22:00,
2013-07-14 06:33:00,49.0,40.0,-100.00,SE,128,12.0,21.0,71,0.00,,,0.00,1.000000,,2013-07-14 12:33:00,
2013-07-14 06:43:00,49.0,40.0,-100.00,SE,128,12.0,21.0,71,0.00,,,0.00,1.000000,,2013-07-14 12:43:00,
2013-07-14 06:52:00,49.0,40.0,-100.00,SE,140,14.0,22.0,70,0.00,,,0.00,13.000000,,2013-07-14 12:52:00,
2013-07-14 07:22:00,49.0,40.0,-100.00,SE,140,14.0,22.0,70,0.00,,,0.00,13.000000,,2013-07-14 13:22:00,
2013-07-14 07:32:00,49.0,40.0,-100.00,SE,140,14.0,22.0,70,0.00,,,0.00,13.000000,,2013-07-14 13:32:00,
2013-07-14 07:42:00,49.0,40.0,-100.00,SE,140,14.0,22.0,70,0.00,,,0.00,13.000000,,2013-07-14 13:42:00,
2013-07-14 07:52:00,50.0,39.0,-100.00,SE,143,14.0,25.0,65,0.00,,,0.00,51.000000,,2013-07-14 13:52:00,
2013-07-14 08:11:00,50.0,39.0,-100.00,SE,143,14.0,25.0,65,0.00,,,0.00,51.000000,,2013-07-14 14:11:00,
2013-07-14 08:23:00,50.0,39.0,-100.00,SE,143,14.0,25.0,65,0.00,,,0.00,51.000000,,2013-07-14 14:23:00,
2013-07-14 08:33:00,50.0,39.0,-100.00,SE,143,14.0,25.0,65,0.00,,,0.00,51.000000,,2013-07-14 14:33:00,
2013-07-14 08:43:00,50.0,39.0,-100.00,SE,143,14.0,25.0,65,0.00,,,0.00,51.000000,,2013-07-14 14:43:00,
2013-07-14 08:52:00,52.0,32.0,-100.00,SE,145,14.0,25.0,46,0.00,,,0.00,135.000000,,2013-07-14 14:52:00,
2013-07-14 09:12:00,52.0,32.0,-100.00,SE,145,14.0,25.0,46,0.00,,,0.00,135.000000,,2013-07-14 15:12:00,
2013-07-14 09:22:00,52.0,32.0,-100.00,SE,145,14.0,25.0,46,0.00,,,0.00,135.000000,,2013-07-14 15:22:00,
2013-07-14 09:32:00,52.0,32.0,-100.00,SE,145,14.0,25.0,46,0.00,,,0.00,135.000000,,2013-07-14 15:32:00,
2013-07-14 09:42:00,52.0,32.0,-100.00,SE,145,14.0,25.0,46,0.00,,,0.00,135.000000,,2013-07-14 15:42:00,
2013-07-14 09:52:00,56.0,36.0,-100.00,SSE,154,18.0,32.0,46,0.00,,,0.00,617.000000,,2013-07-14 15:52:00,
2013-07-14 10:11:00,56.0,36.0,-100.00,SSE,154,18.0,32.0,46,0.00,,,0.00,617.000000,,2013-07-14 16:11:00,
2013-07-14 10:22:00,56.0,36.0,-100.00,SSE,154,18.0,32.0,46,0.00,,,0.00,617.000000,,2013-07-14 16:22:00,
2013-07-14 10:32:00,56.0,36.0,-100.00,SSE,154,18.0,32.0,46,0.00,,,0.00,617.000000,,2013-07-14 16:32:00,
2013-07-14 10:43:00,56.0,36.0,-100.00,SSE,154,18.0,32.0,46,0.00,,,0.00,617.000000,,2013-07-14 16:43:00,
2013-07-14 10:52:00,58.0,37.0,-100.00,SE,145,19.0,33.0,46,0.00,,,0.00,863.000000,,2013-07-14 16:52:00,
2013-07-14 11:11:00,58.0,37.0,-100.00,SE,145,19.0,33.0,46,0.00,,,0.00,863.000000,,2013-07-14 17:11:00,
2013-07-14 11:22:00,58.0,37.0,-100.00,SE,145,19.0,33.0,46,0.00,,,0.00,863.000000,,2013-07-14 17:22:00,
2013-07-14 11:32:00,58.0,37.0,-100.00,SE,145,19.0,33.0,46,0.00,,,0.00,863.000000,,2013-07-14 17:32:00,
2013-07-14 11:43:00,58.0,37.0,-100.00,SE,145,19.0,33.0,46,0.00,,,0.00,863.000000,,2013-07-14 17:43:00,
2013-07-14 11:52:00,60.0,36.0,-100.00,SE,143,16.0,33.0,41,0.00,,,0.00,1046.000000,,2013-07-14 17:52:00,
2013-07-14 12:11:00,60.0,36.0,-100.00,SE,143,16.0,33.0,41,0.00,,,0.00,1046.000000,,2013-07-14 18:11:00,
2013-07-14 12:22:00,60.0,36.0,-100.00,SE,143,16.0,33.0,41,0.00,,,0.00,1046.000000,,2013-07-14 18:22:00,
2013-07-14 12:32:00,60.0,36.0,-100.00,SE,143,16.0,33.0,41,0.00,,,0.00,1046.000000,,2013-07-14 18:32:00,
2013-07-14 12:42:00,60.0,36.0,-100.00,SE,143,16.0,33.0,41,0.00,,,0.00,1046.000000,,2013-07-14 18:42:00,
2013-07-14 12:52:00,62.0,39.0,-100.00,SSE,147,17.0,35.0,42,0.00,,,0.00,1094.000000,,2013-07-14 18:52:00,
2013-07-14 13:11:00,62.0,39.0,-100.00,SSE,147,17.0,35.0,42,0.00,,,0.00,1094.000000,,2013-07-14 19:11:00,
2013-07-14 13:22:00,62.0,39.0,-100.00,SSE,147,17.0,35.0,42,0.00,,,0.00,1094.000000,,2013-07-14 19:22:00,
2013-07-14 13:32:00,62.0,39.0,-100.00,SSE,147,17.0,35.0,42,0.00,,,0.00,1094.000000,,2013-07-14 19:32:00,
2013-07-14 13:43:00,62.0,39.0,-100.00,SSE,147,17.0,35.0,42,0.00,,,0.00,1094.000000,,2013-07-14 19:43:00,
2013-07-14 13:52:00,64.0,44.0,-100.00,SSE,149,14.0,30.0,48,0.00,,,0.00,1136.000000,,2013-07-14 19:52:00,
2013-07-14 14:11:00,64.0,44.0,-100.00,SSE,149,14.0,30.0,48,0.00,,,0.00,1136.000000,,2013-07-14 20:11:00,
2013-07-14 14:22:00,64.0,44.0,-100.00,SSE,149,14.0,30.0,48,0.00,,,0.00,1136.000000,,2013-07-14 20:22:00,
2013-07-14 14:32:00,64.0,44.0,-100.00,SSE,149,14.0,30.0,48,0.00,,,0.00,1136.000000,,2013-07-14 20:32:00,
2013-07-14 14:43:00,64.0,44.0,-100.00,SSE,149,14.0,30.0,48,0.00,,,0.00,1136.000000,,2013-07-14 20:43:00,
2013-07-14 14:52:00,64.0,44.0,-100.00,SE,146,10.0,33.0,48,0.00,,,0.00,958.000000,,2013-07-14 20:52:00,
2013-07-14 15:11:00,64.0,44.0,-100.00,SE,146,10.0,33.0,48,0.00,,,0.00,958.000000,,2013-07-14 21:11:00,
2013-07-14 15:22:00,64.0,44.0,-100.00,SE,146,10.0,33.0,48,0.00,,,0.00,958.000000,,2013-07-14 21:22:00,
2013-07-14 15:32:00,64.0,44.0,-100.00,SE,146,10.0,33.0,48,0.00,,,0.00,958.000000,,2013-07-14 21:32:00,
2013-07-14 15:43:00,64.0,44.0,-100.00,SE,146,10.0,33.0,48,0.00,,,0.00,958.000000,,2013-07-14 21:43:00,
2013-07-14 15:52:00,53.0,50.0,-100.00,East,90,13.0,29.0,90,0.35,,,0.35,255.000000,,2013-07-14 21:52:00,
2013-07-14 16:32:00,53.0,50.0,-100.00,East,90,13.0,29.0,90,0.35,,,0.35,255.000000,,2013-07-14 22:32:00,
2013-07-14 16:42:00,53.0,50.0,-100.00,East,90,13.0,29.0,90,0.35,,,0.35,255.000000,,2013-07-14 22:42:00,
2013-07-14 16:52:00,58.0,47.0,-100.00,SE,127,20.0,33.0,67,0.00,,,0.35,893.000000,,2013-07-14 22:52:00,
2013-07-14 17:11:00,58.0,47.0,-100.00,SE,127,20.0,33.0,67,0.00,,,0.35,893.000000,,2013-07-14 23:11:00,
2013-07-14 17:22:00,58.0,47.0,-100.00,SE,127,20.0,33.0,67,0.00,,,0.35,893.000000,,2013-07-14 23:22:00,
2013-07-14 17:32:00,58.0,47.0,-100.00,SE,127,20.0,33.0,67,0.00,,,0.35,893.000000,,2013-07-14 23:32:00,
2013-07-14 17:42:00,58.0,47.0,-100.00,SE,127,20.0,33.0,67,0.00,,,0.35,893.000000,,2013-07-14 23:42:00,
2013-07-14 17:52:00,61.0,44.0,-100.00,SE,143,18.0,32.0,53,0.00,,,0.35,712.000000,,2013-07-14 23:52:00,
2013-07-14 18:11:00,61.0,44.0,-100.00,SE,143,18.0,32.0,53,0.00,,,0.35,712.000000,,2013-07-15 00:11:00,
2013-07-14 18:22:00,61.0,44.0,-100.00,SE,143,18.0,32.0,53,0.00,,,0.35,712.000000,,2013-07-15 00:22:00,
2013-07-14 18:32:00,61.0,44.0,-100.00,SE,143,18.0,32.0,53,0.00,,,0.35,712.000000,,2013-07-15 00:32:00,
2013-07-14 18:43:00,61.0,44.0,-100.00,SE,143,18.0,32.0,53,0.00,,,0.35,712.000000,,2013-07-15 00:43:00,
2013-07-14 18:52:00,62.0,44.0,-100.00,SE,142,16.0,29.0,52,0.00,,,0.35,505.000000,,2013-07-15 00:52:00,
2013-07-14 19:11:00,62.0,44.0,-100.00,SE,142,16.0,29.0,52,0.00,,,0.35,505.000000,,2013-07-15 01:11:00,
2013-07-14 19:22:00,62.0,44.0,-100.00,SE,142,16.0,29.0,52,0.00,,,0.35,505.000000,,2013-07-15 01:22:00,
2013-07-14 19:32:00,62.0,44.0,-100.00,SE,142,16.0,29.0,52,0.00,,,0.35,505.000000,,2013-07-15 01:32:00,
2013-07-14 19:43:00,62.0,44.0,-100.00,SE,142,16.0,29.0,52,0.00,,,0.35,505.000000,,2013-07-15 01:43:00,
2013-07-14 19:52:00,61.0,46.0,-100.00,SE,129,15.0,27.0,58,0.00,,,0.35,218.000000,,2013-07-15 01:52:00,
2013-07-14 20:11:00,61.0,46.0,-100.00,SE,129,15.0,27.0,58,0.00,,,0.35,218.000000,,2013-07-15 02:11:00,
2013-07-14 20:22:00,61.0,46.0,-100.00,SE,129,15.0,27.0,58,0.00,,,0.35,218.000000,,2013-07-15 02:22:00,
2013-07-14 20:32:00,61.0,46.0,-100.00,SE,129,15.0,27.0,58,0.00,,,0.35,218.000000,,2013-07-15 02:32:00,
2013-07-14 20:42:00,61.0,46.0,-100.00,SE,129,15.0,27.0,58,0.00,,,0.35,218.000000,,2013-07-15 02:42:00,
2013-07-14 20:52:00,59.0,46.0,-100.00,SE,133,18.0,27.0,63,0.00,,,0.35,25.000000,,2013-07-15 02:52:00,
2013-07-14 21:11:00,59.0,46.0,-100.00,SE,133,18.0,27.0,63,0.00,,,0.35,25.000000,,2013-07-15 03:11:00,
2013-07-14 21:22:00,59.0,46.0,-100.00,SE,133,18.0,27.0,63,0.00,,,0.35,25.000000,,2013-07-15 03:22:00,
2013-07-14 21:32:00,59.0,46.0,-100.00,SE,133,18.0,27.0,63,0.00,,,0.35,25.000000,,2013-07-15 03:32:00,
2013-07-14 21:43:00,59.0,46.0,-100.00,SE,133,18.0,27.0,63,0.00,,,0.35,25.000000,,2013-07-15 03:43:00,
2013-07-14 21:52:00,58.0,47.0,-100.00,SE,132,18.0,29.0,66,0.00,,,0.35,4.000000,,2013-07-15 03:52:00,
2013-07-14 22:11:00,58.0,47.0,-100.00,SE,132,18.0,29.0,66,0.00,,,0.35,4.000000,,2013-07-15 04:11:00,
2013-07-14 22:22:00,58.0,47.0,-100.00,SE,132,18.0,29.0,66,0.00,,,0.35,4.000000,,2013-07-15 04:22:00,
2013-07-14 22:32:00,58.0,47.0,-100.00,SE,132,18.0,29.0,66,0.00,,,0.35,4.000000,,2013-07-15 04:32:00,
2013-07-14 22:42:00,58.0,47.0,-100.00,SE,132,18.0,29.0,66,0.00,,,0.35,4.000000,,2013-07-15 04:42:00,
2013-07-14 22:52:00,55.0,45.0,-100.00,SE,131,19.0,28.0,70,0.00,,,0.35,0.000000,,2013-07-15 04:52:00,
2013-07-14 23:11:00,55.0,45.0,-100.00,SE,131,19.0,28.0,70,0.00,,,0.35,0.000000,,2013-07-15 05:11:00,
2013-07-14 23:21:00,55.0,45.0,-100.00,SE,131,19.0,28.0,70,0.00,,,0.35,0.000000,,2013-07-15 05:21:00,
2013-07-14 23:32:00,55.0,45.0,-100.00,SE,131,19.0,28.0,70,0.00,,,0.35,0.000000,,2013-07-15 05:32:00,
2013-07-14 23:43:00,55.0,45.0,-100.00,SE,131,19.0,28.0,70,0.00,,,0.35,0.000000,,2013-07-15 05:43:00,
2013-07-14 23:52:00,55.0,45.0,-100.00,SE,139,20.0,30.0,69,0.00,,,-99.99,0.000000,,2013-07-15 05:52:00,